Weather History for Newport News, VA

Change the Weather History Date:

Friday, November 23, 2012

  Actual Average Record
Temperature  
Mean Temperature 50 °F -  
Max Temperature 64 °F 55 °F 76 °F (1979)
Min Temperature 35 °F 38 °F 23 °F (2000)
Degree Days  
Heating Degree Days 16    
Moisture  
Dew Point 35 °F    
Average Humidity 69    
Maximum Humidity 89    
Minimum Humidity 33    
Precipitation  
Precipitation 0.00 in - - ()
Sea Level Pressure  
Sea Level Pressure 30.01 in    
Wind  
Wind Speed 2 mph (SW)    
Max Wind Speed 13 mph    
Max Gust Speed -    
Visibility 7 miles    
Events Rain    
Averages and records for this station are not official NWS values.
T = Trace of Precipitation, MM = Missing Value Source: NWS Daily Summary

Daily Weather History Graph

Daily Weather History Graph

Search for Another Location

Airport:

Trip Planner

Search our weather history database for the weather conditions in past years. The results will help you decide how hot, cold, wet, or windy it might be!

Date:

Astronomy

Nov. 23, 2012 Rise Set
Actual Time 6:53 AM EST 4:51 PM EST
Civil Twilight 6:25 AM EST 5:19 PM EST
Nautical Twilight 5:53 AM EST 5:51 PM EST
Astronomical Twilight 5:22 AM EST 6:22 PM EST
Moon 2:00 PM EST (11/23) 2:15 AM EST (11/23)
Length of Visible Light 10h 54m
Length of Day
9h 57m
Waxing Gibbous, 79% of the Moon is Illuminated
Nov 23
Waxing Gibbous
Nov 28
Full
Dec 6
Last Quarter
Dec 13
New
Dec 20
First Quarter

Hourly Weather History & Observations

Time (EST) Temp. Dew Point Humidity Pressure Visibility Wind Dir Wind Speed Gust Speed Precip Events Conditions
12:54 AM 39.9 °F 35.1 °F 83% 30.14 in 6.0 mi Calm Calm - N/A   Haze
1:54 AM 39.0 °F 34.0 °F 82% 30.13 in 6.0 mi Calm Calm - N/A   Haze
2:54 AM 37.9 °F 33.1 °F 83% 30.12 in 4.0 mi Calm Calm - N/A   Haze
3:11 AM 37.4 °F 33.8 °F 87% 30.12 in 1.8 mi Calm Calm - N/A   Clear
3:35 AM 37.4 °F 33.8 °F 87% 30.11 in 3.0 mi Calm Calm - N/A   Clear
3:44 AM 37.4 °F 33.8 °F 87% 30.11 in 1.5 mi Calm Calm - N/A   Clear
3:54 AM 37.0 °F 34.0 °F 89% 30.10 in 0.8 mi Calm Calm - N/A   Clear
3:59 AM 37.4 °F 33.8 °F 87% 30.10 in 2.0 mi Calm Calm - N/A   Clear
4:06 AM 37.4 °F 33.8 °F 87% 30.10 in 6.0 mi Calm Calm - N/A   Clear
4:26 AM 37.4 °F 33.8 °F 87% 30.11 in 2.0 mi Calm Calm - N/A   Clear
4:33 AM 35.6 °F 32.0 °F 87% 30.11 in 1.0 mi Calm Calm - N/A   Mist
4:42 AM 37.4 °F 32.0 °F 81% 30.11 in 2.0 mi Calm Calm - N/A   Haze
4:49 AM 37.4 °F 33.8 °F 87% 30.11 in 4.0 mi Calm Calm - N/A   Haze
4:54 AM 37.9 °F 33.1 °F 83% 30.11 in 6.0 mi Calm Calm - N/A   Haze
5:09 AM 37.4 °F 33.8 °F 87% 30.11 in 2.0 mi Calm Calm - 0.00 in Rain Light Rain
5:18 AM 37.4 °F 33.8 °F 87% 30.11 in 5.0 mi Calm Calm - 0.00 in Rain Light Rain
5:54 AM 35.1 °F 32.0 °F 89% 30.10 in 9.0 mi Calm Calm - 0.00 in   Clear
6:54 AM 37.0 °F 33.1 °F 86% 30.11 in 5.0 mi Calm Calm - 0.00 in   Clear
7:54 AM 39.0 °F 35.1 °F 86% 30.10 in 5.0 mi Calm Calm - N/A   Clear
8:54 AM 48.0 °F 42.1 °F 80% 30.09 in 8.0 mi WSW 4.6 mph - N/A   Clear
9:54 AM 53.1 °F 43.0 °F 69% 30.06 in 10.0 mi SW 6.9 mph - N/A   Clear
10:54 AM 55.9 °F 42.1 °F 60% 30.03 in 10.0 mi South 8.1 mph - N/A   Clear
11:54 AM 59.0 °F 39.0 °F 48% 29.98 in 10.0 mi SW 9.2 mph - N/A   Clear
12:54 PM 62.1 °F 37.9 °F 41% 29.95 in 10.0 mi SSW 10.4 mph - N/A   Clear
1:54 PM 64.0 °F 34.0 °F 33% 29.91 in 10.0 mi SSW 11.5 mph - N/A   Clear
2:54 PM 64.0 °F 35.1 °F 34% 29.88 in 10.0 mi SW 10.4 mph - N/A   Clear
3:54 PM 62.1 °F 36.0 °F 38% 29.85 in 10.0 mi SW 8.1 mph - N/A   Clear
4:54 PM 59.0 °F 36.0 °F 42% 29.83 in 10.0 mi SSW 8.1 mph - N/A   Clear
5:54 PM 55.0 °F 36.0 °F 49% 29.84 in 10.0 mi SW 8.1 mph - N/A   Clear
6:54 PM 57.9 °F 37.0 °F 46% 29.83 in 10.0 mi SW 10.4 mph - N/A   Clear
7:54 PM 55.9 °F 37.9 °F 51% 29.83 in 10.0 mi SW 9.2 mph - N/A   Partly Cloudy
8:54 PM 57.0 °F 37.0 °F 47% 29.82 in 10.0 mi SW 12.7 mph - N/A   Scattered Clouds
9:54 PM 57.9 °F 37.0 °F 46% 29.80 in 10.0 mi SW 9.2 mph - N/A   Mostly Cloudy
10:54 PM 55.9 °F 37.0 °F 49% 29.79 in 10.0 mi WSW 8.1 mph - N/A   Overcast
11:54 PM 55.0 °F 37.0 °F 51% 29.80 in 10.0 mi West 6.9 mph - N/A   Clear